YO2LDK-13 Weather Reports


time (UTC)temp
F
wind
direction
speed
knots
gust
knots
rain 1hr
in
rain 24hr
in
rain mn
in
humidity
%
barometer
mb
20260507060519 61 24 0.0 0.0 0.00 0.00 0.00 95 1004.4
20260507060020 61 6 0.0 0.0 0.00 0.00 0.00 95 1004.7
20260507055521 61 42 0.0 0.0 0.00 0.00 0.00 94 1004.4
20260507055019 61 42 0.0 0.0 0.00 0.00 0.00 94 1004.4
20260507054519 61 42 0.0 0.0 0.00 0.00 0.00 92 1004.4
20260507054020 62 36 0.0 0.0 0.00 0.00 0.00 90 1004.4
20260507053520 62 74 1.7 1.7 0.00 0.00 0.00 90 1004.1
20260507053019 62 270 0.0 0.0 0.00 0.00 0.00 90 1004.1
20260507052520 62 270 0.0 0.0 0.00 0.00 0.00 90 1004.1
20260507052019 62 270 0.0 0.0 0.00 0.00 0.00 90 1004.1
20260507051520 62 270 0.0 0.0 0.00 0.00 0.00 89 1004.1
20260507051022 62 48 0.0 0.0 0.00 0.00 0.00 88 1003.7
20260507050519 62 24 0.0 0.0 0.00 0.00 0.00 88 1003.7
20260507050020 62 12 0.0 0.0 0.00 0.00 0.00 88 1003.7
20260507045519 62 12 0.0 0.0 0.00 0.00 0.00 88 1003.7
20260507045019 62 12 0.0 0.0 0.00 0.00 0.00 88 1003.4
20260507044519 61 6 0.0 0.0 0.00 0.00 0.00 88 1003.4
20260507044021 61 18 0.0 0.0 0.00 0.00 0.00 88 1003.0
20260507043520 61 18 0.0 0.0 0.00 0.00 0.00 88 1003.4
20260507043019 61 18 0.0 0.0 0.00 0.00 0.00 88 1003.4
20260507042519 61 18 0.0 0.0 0.00 0.00 0.00 88 1003.0
20260507042019 61 30 0.0 0.0 0.00 0.00 0.00 88 1003.0
20260507041519 61 30 0.0 0.0 0.00 0.00 0.00 88 1003.0
20260507041020 61 30 0.0 0.0 0.00 0.00 0.00 88 1003.0
20260507040521 61 30 0.0 0.0 0.00 0.00 0.00 88 1002.7
20260507040020 61 30 0.0 0.0 0.00 0.00 0.00 88 1003.0
20260507035520 60 30 0.0 0.0 0.00 0.00 0.00 88 1002.7
20260507035021 60 30 0.0 0.0 0.00 0.00 0.00 88 1002.7
20260507034519 60 30 0.0 0.0 0.00 0.00 0.00 88 1003.0
20260507034020 60 30 0.0 0.0 0.00 0.00 0.00 87 1002.7
20260507033520 61 30 0.0 0.0 0.00 0.00 0.00 87 1002.4
20260507033019 61 30 0.0 0.0 0.00 0.00 0.00 87 1002.4
20260507032520 61 30 0.0 0.0 0.00 0.00 0.00 86 1002.0
20260507032019 61 30 0.0 0.0 0.00 0.00 0.00 86 1002.4
20260507031522 61 30 0.0 0.0 0.00 0.00 0.00 85 1002.4
20260507031019 61 30 0.0 0.0 0.00 0.00 0.00 85 1002.4
20260507030519 61 30 0.0 0.0 0.00 0.00 0.00 85 1002.4
20260507030019 61 36 0.0 0.0 0.00 0.00 0.00 85 1002.4
20260507025520 60 36 0.0 0.0 0.00 0.00 0.00 85 1002.4
20260507025020 60 36 0.0 0.0 0.00 0.00 0.00 85 1002.0
20260507024519 60 36 0.0 0.0 0.00 0.00 0.00 85 1002.4
20260507024019 60 36 0.0 0.0 0.00 0.00 0.00 85 1002.4
20260507023520 60 36 0.0 0.0 0.00 0.00 0.00 85 1002.0
20260507023023 60 36 0.0 0.0 0.00 0.00 0.00 84 1002.0
20260507022520 60 36 0.0 0.0 0.00 0.00 0.00 84 1002.0
20260507022020 60 78 0.0 0.0 0.00 0.00 0.00 84 1001.7
20260507021520 60 78 0.0 0.0 0.00 0.00 0.00 84 1001.7
20260507021019 59 78 0.0 0.0 0.00 0.00 0.00 83 1001.7
20260507020520 59 78 0.0 0.0 0.00 0.00 0.00 84 1001.7
20260507020019 60 78 0.0 0.0 0.00 0.00 0.00 84 1002.0
20260507015520 60 78 0.0 0.0 0.00 0.00 0.00 84 1001.7
20260507015019 60 78 0.0 0.0 0.00 0.00 0.00 83 1001.7
20260507014519 60 78 0.0 0.0 0.00 0.00 0.00 83 1002.0
20260507014019 60 78 0.0 0.0 0.00 0.00 0.00 82 1002.0
20260507013520 60 78 0.0 0.0 0.00 0.00 0.00 82 1002.0
20260507013020 60 78 0.0 0.0 0.00 0.00 0.00 82 1001.7
20260507012520 61 78 0.0 0.0 0.00 0.00 0.00 81 1001.7
20260507012019 61 78 0.0 0.0 0.00 0.00 0.00 81 1001.7
20260507011520 61 78 0.0 0.0 0.00 0.00 0.00 81 1001.7
20260507011020 61 78 0.0 0.0 0.00 0.00 0.00 80 1001.7
20260507010519 61 78 0.0 0.0 0.00 0.00 0.00 79 1001.7
20260507010020 60 78 0.0 0.0 0.00 0.00 0.00 79 1001.7
20260507005519 60 78 0.0 0.0 0.00 0.00 0.00 78 1001.4
20260507005019 60 78 0.0 0.0 0.00 0.00 0.00 78 1001.4
20260507004520 60 78 0.0 0.0 0.00 0.00 0.00 78 1001.4
20260507004020 60 78 0.0 0.0 0.00 0.00 0.00 78 1001.4
20260507003519 60 78 0.0 0.0 0.00 0.00 0.00 78 1001.4
20260507003022 60 78 0.0 0.0 0.00 0.00 0.00 77 1001.0
20260507002521 61 78 0.0 0.0 0.00 0.00 0.00 76 1001.0
20260507002019 61 78 0.0 0.0 0.00 0.00 0.00 77 1000.7
20260507001519 61 78 0.0 0.0 0.00 0.00 0.00 76 1001.0
20260507001019 61 78 0.0 0.0 0.00 0.00 0.00 76 1000.7
20260507000522 61 78 0.0 0.0 0.00 0.00 0.00 75 1000.7
20260507000020 62 78 0.0 0.0 0.00 0.00 0.00 74 1001.0
20260506235519 62 78 0.0 0.0 0.00 0.00 0.00 74 1000.7
20260506235020 62 78 0.0 0.0 0.00 0.00 0.00 72 1000.7
20260506234523 62 78 0.0 0.0 0.00 0.00 0.00 72 1000.7
20260506234020 63 78 0.0 0.0 0.00 0.00 0.00 72 1001.0
20260506233519 63 78 0.0 0.0 0.00 0.00 0.00 71 1000.7
20260506233020 63 78 0.0 0.0 0.00 0.00 0.00 71 1001.0
20260506232519 64 78 0.0 0.0 0.00 0.00 0.00 70 1000.7
20260506232019 64 78 0.0 0.0 0.00 0.00 0.00 69 1000.7
20260506231519 64 78 0.0 0.0 0.00 0.00 0.00 68 1000.7
20260506231020 65 78 0.0 0.0 0.00 0.00 0.00 68 1000.7
20260506230519 65 78 0.0 0.0 0.00 0.00 0.00 67 1001.0
20260506230020 65 78 0.0 0.0 0.00 0.00 0.00 66 1001.0
20260506225520 66 78 0.0 0.0 0.00 0.00 0.00 65 1001.0
20260506225020 66 78 0.0 0.0 0.00 0.00 0.00 64 1001.0
20260506224521 66 78 0.0 0.0 0.00 0.00 0.00 63 1001.4
20260506224019 67 78 0.0 0.0 0.00 0.00 0.00 62 1001.7
20260506223519 66 78 0.0 0.0 0.00 0.00 0.00 60 1001.4
20260506223019 65 66 0.0 0.0 0.00 0.00 0.00 59 1001.7
20260506222521 63 30 0.9 0.9 0.00 0.00 0.00 59 1001.0
20260506222019 62 48 1.7 1.7 0.00 0.00 0.00 66 1001.4
20260506221520 62 24 0.0 0.0 0.00 0.00 0.00 67 1000.7
20260506221021 62 288 0.0 0.0 0.00 0.00 0.00 68 1000.7
20260506220520 62 288 0.0 0.0 0.00 0.00 0.00 69 1000.7
20260506220019 62 288 0.0 0.0 0.00 0.00 0.00 69 1000.3
20260506215519 62 288 0.0 0.0 0.00 0.00 0.00 68 1000.0
20260506215019 62 292 0.0 0.0 0.00 0.00 0.00 68 1000.3
20260506214519 62 288 0.0 0.0 0.00 0.00 0.00 69 1000.3
20260506214019 61 288 0.0 0.0 0.00 0.00 0.00 68 1000.0
20260506213519 61 288 0.0 0.0 0.00 0.00 0.00 69 1000.0
20260506213019 61 288 0.0 0.0 0.00 0.00 0.00 70 1000.3
20260506212519 61 292 0.0 0.0 0.00 0.00 0.00 70 1000.7
20260506212019 61 288 0.0 0.0 0.00 0.00 0.00 70 1000.3
20260506211519 61 288 0.0 0.0 0.00 0.00 0.00 70 1000.3
20260506211020 61 292 0.0 0.0 0.00 0.00 0.00 70 1000.3
20260506210519 61 292 0.0 0.0 0.00 0.00 0.00 70 1000.3
20260506210019 61 292 0.0 0.0 0.00 0.00 0.00 69 1000.3
20260506205520 61 288 0.0 0.0 0.00 0.00 0.00 68 1000.7
20260506205019 62 288 0.0 0.0 0.00 0.00 0.00 68 1000.3
20260506204520 62 288 0.0 0.0 0.00 0.00 0.00 67 1000.7
20260506204019 62 292 0.0 0.0 0.00 0.00 0.00 67 1000.7
20260506203520 62 292 0.0 0.0 0.00 0.00 0.00 67 1000.7
20260506203019 62 288 0.0 0.0 0.00 0.00 0.00 66 1000.3
20260506202519 62 288 0.0 0.0 0.00 0.00 0.00 65 1000.7
20260506202019 63 288 0.0 0.0 0.00 0.00 0.00 64 1000.7
20260506201520 63 288 0.0 0.0 0.00 0.00 0.00 64 1000.7
20260506201020 63 288 0.0 0.0 0.00 0.00 0.00 63 1000.3
20260506200520 63 292 0.0 0.0 0.00 0.00 0.00 64 1000.3
20260506200020 63 292 0.0 0.0 0.00 0.00 0.00 64 1000.3
20260506195520 63 292 0.0 0.0 0.00 0.00 0.00 64 1000.3
20260506195020 64 288 0.0 0.0 0.00 0.00 0.00 63 1000.3
20260506194526 64 288 0.0 0.0 0.00 0.00 0.00 62 1000.3
20260506194021 64 288 0.0 0.0 0.00 0.00 0.00 62 1000.3
20260506193521 64 293 0.0 0.0 0.00 0.00 0.00 63 1000.3
20260506193021 64 293 0.0 0.0 0.00 0.00 0.00 62 1000.3
20260506192523 64 293 0.0 0.0 0.00 0.00 0.00 61 1000.0
20260506192022 64 293 0.0 0.0 0.00 0.00 0.00 61 1000.3
20260506191523 65 293 0.0 0.0 0.00 0.00 0.00 61 1000.3
20260506191021 65 293 0.0 0.0 0.00 0.00 0.00 61 1000.0
20260506190520 65 293 0.0 0.0 0.00 0.00 0.00 60 1000.0
20260506190020 65 293 0.0 0.0 0.00 0.00 0.00 60 1000.0
20260506185520 65 293 0.0 0.0 0.00 0.00 0.00 59 1000.3
20260506185020 66 293 0.0 0.0 0.00 0.00 0.00 59 1000.0
20260506184519 66 293 0.0 0.0 0.00 0.00 0.00 58 1000.3
20260506184019 66 293 0.0 0.0 0.00 0.00 0.00 56 1000.3
20260506183520 67 293 0.0 0.0 0.00 0.00 0.00 55 1000.0
20260506183019 67 293 0.0 0.0 0.00 0.00 0.00 54 1000.0
20260506182520 68 293 0.0 0.0 0.00 0.00 0.00 52 1000.0
20260506182020 68 293 0.0 0.0 0.00 0.00 0.00 51 1000.0
20260506181521 69 293 0.0 0.0 0.00 0.00 0.00 50 1000.0
20260506181019 70 293 0.0 0.0 0.00 0.00 0.00 48 1000.0
20260506180521 71 293 0.0 0.0 0.00 0.00 0.00 46 1000.0
20260506180022 71 293 0.0 0.0 0.00 0.00 0.00 47 1000.0
20260506175521 72 293 0.0 0.0 0.00 0.00 0.00 45 1000.0
20260506175019 72 293 0.0 0.0 0.00 0.00 0.00 45 1000.0
20260506174521 73 293 0.0 0.0 0.00 0.00 0.00 44 1000.0
20260506174019 74 293 0.0 0.0 0.00 0.00 0.00 42 999.7
20260506173521 74 293 0.0 0.0 0.00 0.00 0.00 41 999.7
20260506173021 75 293 0.0 0.0 0.00 0.00 0.00 40 999.7
20260506172519 75 293 0.0 0.0 0.00 0.00 0.00 40 999.7
20260506172021 76 293 0.0 0.0 0.00 0.00 0.00 40 999.7
20260506171520 76 293 0.0 0.0 0.00 0.00 0.00 39 1000.0
20260506171020 77 293 0.0 0.0 0.00 0.00 0.00 37 999.7
20260506170520 78 293 0.0 0.0 0.00 0.00 0.00 37 999.7
20260506170020 78 293 0.0 0.0 0.00 0.00 0.00 37 999.7
20260506165520 78 293 0.0 0.0 0.00 0.00 0.00 37 999.7
20260506165020 78 293 0.0 0.0 0.00 0.00 0.00 35 999.7
20260506164520 78 293 0.0 0.0 0.00 0.00 0.00 35 999.7
20260506164019 78 294 0.0 0.0 0.00 0.00 0.00 34 1000.0
20260506163520 78 294 0.0 0.0 0.00 0.00 0.00 34 999.7
20260506163021 79 294 0.0 0.0 0.00 0.00 0.00 34 999.7
20260506162522 79 294 0.0 0.0 0.00 0.00 0.00 34 999.7
20260506162020 79 276 0.0 0.0 0.00 0.00 0.00 34 999.7
20260506161520 79 294 1.7 1.7 0.00 0.00 0.00 34 1000.0
20260506161022 79 294 0.0 0.0 0.00 0.00 0.00 34 1000.0
20260506160522 79 294 1.7 1.7 0.00 0.00 0.00 33 1000.0
20260506160021 79 288 1.7 1.7 0.00 0.00 0.00 33 1000.0
20260506155520 79 288 0.9 0.9 0.00 0.00 0.00 33 1000.0
20260506155019 78 288 1.7 1.7 0.00 0.00 0.00 34 1000.0
20260506154523 79 288 0.0 0.0 0.00 0.00 0.00 33 1000.0
20260506154019 79 67 0.0 0.0 0.00 0.00 0.00 33 1000.0
20260506153521 79 68 0.0 0.0 0.00 0.00 0.00 33 1000.3
20260506153021 78 292 1.7 1.7 0.00 0.00 0.00 33 1000.3
20260506152522 78 288 2.6 2.6 0.00 0.00 0.00 34 1000.0
20260506152020 78 283 1.7 1.7 0.00 0.00 0.00 33 1000.3
20260506151520 79 295 0.9 0.9 0.00 0.00 0.00 33 1000.3
20260506151019 80 288 0.0 0.0 0.00 0.00 0.00 32 1000.3
20260506150521 80 270 3.5 3.5 0.00 0.00 0.00 32 1000.3
20260506150022 80 288 1.7 1.7 0.00 0.00 0.00 32 1000.7
20260506145520 80 294 1.7 1.7 0.00 0.00 0.00 33 1000.3
20260506145020 80 288 0.0 0.0 0.00 0.00 0.00 33 1000.3
20260506144520 80 277 3.5 3.5 0.00 0.00 0.00 33 1000.7
20260506144019 80 294 1.7 1.7 0.00 0.00 0.00 32 1000.7
20260506143521 78 288 0.0 0.0 0.00 0.00 0.00 33 1000.7
20260506142531 79 283 0.9 0.9 0.00 0.00 0.00 33 1000.7
20260506142019 80 276 1.7 1.7 0.00 0.00 0.00 33 1000.7
20260506141520 80 282 2.6 3.5 0.00 0.00 0.00 34 1000.7
20260506141022 79 258 0.0 0.0 0.00 0.00 0.00 34 1000.7
20260506140520 79 276 3.5 3.5 0.00 0.00 0.00 35 1000.7
20260506140021 79 293 0.0 0.0 0.00 0.00 0.00 34 1001.0
20260506135520 80 278 2.6 2.6 0.00 0.00 0.00 34 1001.0
20260506135021 80 288 0.9 0.9 0.00 0.00 0.00 33 1001.0
20260506134519 80 288 0.0 0.0 0.00 0.00 0.00 34 1001.0
20260506134023 80 271 0.0 0.0 0.00 0.00 0.00 34 1001.0
20260506133520 80 264 1.7 1.7 0.00 0.00 0.00 33 1001.0
20260506133020 80 294 2.6 3.5 0.00 0.00 0.00 35 1001.4
20260506132109 81 299 1.7 1.7 0.00 0.00 0.00 33 1001.0
20260506131522 80 22 0.0 0.0 0.00 0.00 0.00 33 1001.4
20260506131019 80 82 0.9 0.9 0.00 0.00 0.00 35 1001.4
20260506130520 79 30 0.0 0.0 0.00 0.00 0.00 36 1001.7
20260506130022 78 36 0.0 0.0 0.00 0.00 0.00 36 1001.4
20260506125520 79 53 1.7 1.7 0.00 0.00 0.00 35 1001.7
20260506125020 81 288 1.7 1.7 0.00 0.00 0.00 35 1001.7
20260506124521 80 39 1.7 1.7 0.00 0.00 0.00 35 1001.4
20260506124022 80 282 0.0 0.0 0.00 0.00 0.00 35 1001.7
20260506123519 80 282 0.9 0.9 0.00 0.00 0.00 35 1001.7
20260506123020 78 59 2.6 2.6 0.00 0.00 0.00 37 1002.0
20260506122519 79 48 0.9 0.9 0.00 0.00 0.00 35 1001.7
20260506122019 79 282 1.7 1.7 0.00 0.00 0.00 37 1002.0
20260506121520 79 282 2.6 3.5 0.00 0.00 0.00 38 1002.0
20260506121019 79 48 0.0 0.0 0.00 0.00 0.00 37 1002.0
20260506120520 79 294 1.7 1.7 0.00 0.00 0.00 36 1002.0
20260506120019 79 288 1.7 1.7 0.00 0.00 0.00 37 1002.0
20260506115520 78 300 0.0 0.0 0.00 0.00 0.00 38 1002.0
20260506115021 79 234 0.0 0.0 0.00 0.00 0.00 38 1002.0
20260506114521 78 285 0.0 0.0 0.00 0.00 0.00 39 1002.4
20260506114022 78 306 1.7 1.7 0.00 0.00 0.00 38 1002.0
20260506113523 78 288 0.0 0.0 0.00 0.00 0.00 38 1002.4
20260506113020 78 292 4.3 5.2 0.00 0.00 0.00 39 1002.4
20260506112521 78 276 1.7 1.7 0.00 0.00 0.00 40 1002.4
20260506112021 77 288 1.7 1.7 0.00 0.00 0.00 39 1002.4
20260506111522 78 282 0.0 0.0 0.00 0.00 0.00 40 1002.4
20260506111021 78 304 2.6 2.6 0.00 0.00 0.00 39 1002.4
20260506110519 77 300 0.0 0.0 0.00 0.00 0.00 40 1002.7
20260506110021 78 304 0.9 0.9 0.00 0.00 0.00 39 1002.7
20260506105037 76 282 2.6 2.6 0.00 0.00 0.00 41 1002.4
20260506104522 78 278 3.5 3.5 0.00 0.00 0.00 39 1002.7
20260506104021 78 288 0.0 0.0 0.00 0.00 0.00 38 1003.0
20260506103521 78 279 0.0 0.0 0.00 0.00 0.00 39 1003.0
20260506103024 78 309 0.0 0.0 0.00 0.00 0.00 39 1003.0
20260506102521 77 276 1.7 1.7 0.00 0.00 0.00 41 1003.0
20260506102019 77 312 1.7 1.7 0.00 0.00 0.00 39 1003.0
20260506101521 77 288 1.7 1.7 0.00 0.00 0.00 41 1003.0
20260506101021 75 54 0.9 0.9 0.00 0.00 0.00 42 1003.0
20260506100521 74 77 1.7 1.7 0.00 0.00 0.00 44 1003.0
20260506100020 76 288 1.7 1.7 0.00 0.00 0.00 40 1003.4
20260506095520 76 348 1.7 1.7 0.00 0.00 0.00 41 1003.4
20260506095020 75 42 0.0 0.0 0.00 0.00 0.00 43 1003.4
20260506094520 74 294 1.7 1.7 0.00 0.00 0.00 44 1003.0
20260506094019 73 278 0.0 0.0 0.00 0.00 0.00 44 1003.4
20260506093520 74 266 3.5 4.3 0.00 0.00 0.00 44 1003.4
20260506093021 74 294 1.7 1.7 0.00 0.00 0.00 43 1003.4
20260506092521 73 294 0.0 0.0 0.00 0.00 0.00 45 1003.7
20260506092020 74 312 0.0 0.0 0.00 0.00 0.00 45 1003.4
20260506091521 74 23 0.0 0.0 0.00 0.00 0.00 44 1003.4
20260506091021 74 294 0.0 0.0 0.00 0.00 0.00 43 1003.7
20260506090519 73 234 1.7 1.7 0.00 0.00 0.00 45 1003.7
20260506090021 74 288 3.5 4.3 0.00 0.00 0.00 45 1003.4
20260506085519 74 300 0.0 0.0 0.00 0.00 0.00 45 1003.7
20260506085019 74 272 3.5 4.3 0.00 0.00 0.00 45 1003.7
20260506084519 73 258 0.0 0.0 0.00 0.00 0.00 44 1003.4
20260506084020 72 300 0.0 0.0 0.00 0.00 0.00 47 1003.4
20260506083519 72 299 1.7 1.7 0.00 0.00 0.00 45 1003.4
20260506083019 71 282 0.0 0.0 0.00 0.00 0.00 47 1003.7
20260506082519 72 294 1.7 1.7 0.00 0.00 0.00 45 1003.7
20260506082020 72 299 0.0 0.0 0.00 0.00 0.00 47 1003.7
20260506081520 72 299 0.0 0.0 0.00 0.00 0.00 45 1003.4
20260506081019 72 42 1.7 1.7 0.00 0.00 0.00 44 1003.7
20260506080522 72 305 0.9 0.9 0.00 0.00 0.00 44 1003.4
20260506073520 70 288 1.7 1.7 0.00 0.00 0.00 48 1003.7
20260506073019 69 288 0.0 0.0 0.00 0.00 0.00 48 1003.7
20260506072520 69 288 1.7 1.7 0.00 0.00 0.00 50 1003.7
20260506072019 69 336 1.7 1.7 0.00 0.00 0.00 49 1003.7
20260506071519 68 293 0.0 0.0 0.00 0.00 0.00 51 1003.7
20260506071019 68 288 0.9 0.9 0.00 0.00 0.00 51 1003.7
20260506070521 67 294 2.6 2.6 0.00 0.00 0.00 52 1003.7
20260506062019 64 294 0.0 0.0 0.00 0.00 0.00 60 1003.7
20260506061520 64 276 0.0 0.0 0.00 0.00 0.00 62 1003.7
20260506061019 63 288 1.7 1.7 0.00 0.00 0.00 63 1003.7